GW4332 Weather Reports


Display with metric or nautical units.
time (UTC)temp
F
wind
direction
speed
MPH
gust
MPH
rain 1hr
in
rain 24hr
in
rain mn
in
humidity
%
barometer
mb
20260902161030 67 239 12.0 15.0 0.00 0.00 0.00 76 1018.8
20260902160030 68 236 12.0 16.0 0.00 0.00 0.00 75 1018.8
20260902155030 68 235 12.0 16.0 0.00 0.00 0.00 73 1018.9
20260902154030 68 244 13.0 17.0 0.00 0.00 0.00 72 1018.9
20260902153029 68 230 14.0 18.0 0.00 0.00 0.00 72 1019.0
20260902152030 68 239 13.0 18.0 0.00 0.00 0.00 72 1019.0
20260902151030 68 247 14.0 19.0 0.00 0.00 0.00 73 1019.0
20260902150030 68 234 15.0 21.0 0.00 0.00 0.00 72 1019.1
20260902145030 69 263 15.0 18.0 0.00 0.00 0.00 72 1019.3
20260902144029 69 239 11.0 17.0 0.00 0.00 0.00 73 1019.3
20260902143030 68 225 10.0 14.0 0.00 0.00 0.00 74 1019.2
20260902142030 68 250 11.0 15.0 0.00 0.00 0.00 74 1019.2
20260902141030 69 232 9.0 13.0 0.00 0.00 0.00 74 1019.2
20260902140030 69 253 12.0 15.0 0.00 0.00 0.00 72 1019.2
20260902135030 69 240 13.0 17.0 0.00 0.00 0.00 71 1019.1
20260902134030 69 247 13.0 17.0 0.00 0.00 0.00 72 1019.1
20260902133030 69 243 12.0 16.0 0.00 0.00 0.00 71 1019.1
20260902132030 69 257 10.0 13.0 0.00 0.00 0.00 75 1019.2
20260902131030 68 252 11.0 14.0 0.00 0.00 0.00 73 1019.1
20260902130030 68 254 13.0 16.0 0.00 0.00 0.00 73 1019.3
20260902125030 68 241 12.0 16.0 0.00 0.00 0.00 73 1019.3
20260902124030 68 233 12.0 16.0 0.00 0.00 0.00 73 1019.2
20260902123030 68 243 10.0 13.0 0.00 0.00 0.00 75 1019.3
20260902122029 67 246 11.0 14.0 0.00 0.00 0.00 75 1019.3
20260902121029 67 246 12.0 15.0 0.00 0.00 0.00 75 1019.4
20260902120030 67 240 12.0 15.0 0.00 0.00 0.00 76 1019.3
20260902115030 67 248 14.0 18.0 0.00 0.00 0.00 76 1019.5
20260902114030 67 259 15.0 20.0 0.00 0.00 0.00 75 1019.6
20260902113032 67 233 14.0 20.0 0.00 0.00 0.00 75 1019.5
20260902112030 67 233 12.0 18.0 0.00 0.00 0.00 75 1019.5
20260902111029 67 240 15.0 22.0 0.00 0.00 0.00 75 1019.4
20260902110030 67 247 16.0 21.0 0.00 0.00 0.00 76 1019.6
20260902105030 67 250 15.0 22.0 0.00 0.00 0.00 75 1019.3
20260902104030 67 228 12.0 18.0 0.00 0.00 0.00 78 1019.3
20260902103030 67 226 13.0 18.0 0.00 0.00 0.00 78 1019.4
20260902102030 67 230 12.0 17.0 0.00 0.00 0.00 77 1019.4
20260902101030 68 222 12.0 17.0 0.00 0.00 0.00 77 1019.3
20260902100030 67 228 11.0 17.0 0.00 0.00 0.00 77 1019.2
20260902095029 67 218 11.0 18.0 0.00 0.00 0.00 80 1019.2
20260902094030 66 234 10.0 16.0 0.00 0.00 0.00 82 1019.1
20260902093030 66 228 10.0 16.0 0.00 0.00 0.00 83 1019.2
20260902092029 66 219 8.0 13.0 0.00 0.00 0.00 84 1019.1
20260902091031 65 209 6.0 10.0 0.00 0.00 0.00 85 1019.1
20260902090030 65 191 5.0 12.0 0.00 0.00 0.00 86 1019.0
20260902085030 64 199 6.0 11.0 0.00 0.00 0.00 87 1019.1
20260902084030 64 194 6.0 12.0 0.00 0.00 0.00 87 1019.0
20260902083030 63 205 7.0 14.0 0.00 0.00 0.00 87 1018.9
20260902082030 63 199 7.0 14.0 0.00 0.00 0.00 88 1018.9
20260902081030 62 183 6.0 12.0 0.00 0.00 0.00 89 1018.9
20260902080030 62 196 7.0 12.0 0.00 0.00 0.00 89 1018.8
20260902075030 61 202 4.0 11.0 0.00 0.00 0.00 90 1018.8
20260902074029 61 188 4.0 10.0 0.00 0.00 0.00 90 1018.7
20260902073030 60 169 4.0 12.0 0.00 0.00 0.00 90 1018.5
20260902072030 60 186 4.0 10.0 0.00 0.00 0.00 90 1018.5
20260902071029 59 184 2.0 8.0 0.00 0.00 0.00 90 1018.5
20260902070030 59 203 3.0 8.0 0.00 0.00 0.00 90 1018.4
20260902065030 59 180 3.0 8.0 0.00 0.00 0.00 90 1018.5
20260902064030 59 189 2.0 8.0 0.00 0.00 0.00 90 1018.5
20260902063030 58 164 2.0 6.0 0.00 0.00 0.00 89 1018.6
20260902062030 58 155 2.0 5.0 0.00 0.00 0.00 89 1018.5
20260902060030 58 143 2.0 5.0 0.00 0.00 0.00 89 1018.4
20260902055030 58 129 2.0 4.0 0.00 0.00 0.00 89 1018.4
20260902054029 58 139 2.0 5.0 0.00 0.00 0.00 89 1018.4
20260902053033 58 126 2.0 4.0 0.00 0.00 0.00 88 1018.5
20260902052030 58 127 2.0 5.0 0.00 0.00 0.00 88 1018.4
20260902051030 58 136 2.0 6.0 0.00 0.00 0.00 88 1018.4
20260902050030 58 121 2.0 4.0 0.00 0.00 0.00 88 1018.3
20260902045030 58 119 2.0 6.0 0.00 0.00 0.00 87 1018.3
20260902044030 58 128 2.0 7.0 0.00 0.00 0.00 87 1018.3
20260902043029 58 116 2.0 6.0 0.00 0.00 0.00 87 1018.3
20260902042030 58 118 2.0 8.0 0.00 0.00 0.00 87 1018.3
20260902041030 58 118 2.0 8.0 0.00 0.00 0.00 86 1018.3
20260902040030 58 132 2.0 6.0 0.00 0.00 0.00 86 1018.4
20260902035030 58 136 2.0 6.0 0.00 0.00 0.00 86 1018.5
20260902034030 58 111 2.0 7.0 0.00 0.00 0.00 86 1018.4
20260902033030 58 100 3.0 7.0 0.00 0.00 0.00 85 1018.6
20260902032030 59 118 2.0 7.0 0.00 0.00 0.00 85 1018.6
20260902031030 59 104 2.0 7.0 0.00 0.00 0.00 85 1018.6
20260902030030 59 123 2.0 7.0 0.00 0.00 0.00 85 1018.7
20260902025030 59 113 3.0 7.0 0.00 0.00 0.00 84 1018.7
20260902024030 59 113 2.0 7.0 0.00 0.00 0.00 84 1018.7
20260902023029 59 116 2.0 7.0 0.00 0.00 0.00 84 1018.8
20260902022030 59 110 2.0 6.0 0.00 0.00 0.00 84 1018.9
20260902021030 59 132 2.0 6.0 0.00 0.00 0.00 84 1018.9
20260902020030 59 139 2.0 5.0 0.00 0.00 0.00 84 1019.1
20260902015030 58 126 2.0 5.0 0.00 0.00 0.00 84 1019.1
20260902014030 58 124 2.0 4.0 0.00 0.00 0.00 84 1019.2
20260902013030 58 128 2.0 5.0 0.00 0.00 0.00 84 1019.3
20260902012029 58 134 2.0 5.0 0.00 0.00 0.00 83 1019.1
20260902011030 59 136 2.0 7.0 0.00 0.00 0.00 83 1019.1
20260902010029 59 129 2.0 5.0 0.00 0.00 0.00 83 1019.1
20260902005031 59 138 2.0 5.0 0.00 0.00 0.00 82 1019.1
20260902004030 59 144 2.0 5.0 0.00 0.00 0.00 82 1019.4
20260902003030 59 132 2.0 6.0 0.00 0.00 0.00 82 1019.2
20260902002030 60 126 1.0 4.0 0.00 0.00 0.00 82 1019.3
20260902001029 60 175 1.0 5.0 0.00 0.00 0.00 81 1019.4
20260902000030 60 171 1.0 4.0 0.00 0.00 0.00 81 1019.4
20260901235030 60 181 2.0 5.0 0.00 0.00 0.00 82 1019.6
20260901234030 60 186 2.0 6.0 0.00 0.00 0.00 82 1019.6
20260901233032 60 182 3.0 6.0 0.00 0.00 0.00 82 1019.7
20260901232029 60 179 2.0 4.0 0.00 0.00 0.00 81 1019.7
20260901231030 60 186 2.0 4.0 0.00 0.00 0.00 81 1019.7
20260901230030 60 185 2.0 5.0 0.00 0.00 0.00 81 1019.7
20260901225030 60 179 1.0 2.0 0.00 0.00 0.00 80 1019.7
20260901224030 60 166 1.0 4.0 0.00 0.00 0.00 80 1019.7
20260901223029 60 154 1.0 3.0 0.00 0.00 0.00 79 1019.7
20260901222030 61 172 1.0 3.0 0.00 0.00 0.00 79 1019.8
20260901221030 61 183 1.0 2.0 0.00 0.00 0.00 78 1019.7
20260901220030 61 169 1.0 3.0 0.00 0.00 0.00 78 1019.8
20260901215030 61 118 1.0 4.0 0.00 0.00 0.00 77 1019.5
20260901214030 61 183 2.0 6.0 0.00 0.00 0.00 77 1020.0
20260901213030 61 179 1.0 4.0 0.00 0.00 0.00 77 1020.2
20260901212030 62 187 3.0 6.0 0.00 0.00 0.00 77 1020.2
20260901211030 62 192 4.0 7.0 0.00 0.00 0.00 76 1020.4
20260901210030 62 194 4.0 7.0 0.00 0.00 0.00 76 1020.4
20260901205030 62 203 5.0 8.0 0.00 0.00 0.00 76 1020.4
20260901204030 62 195 5.0 7.0 0.00 0.00 0.00 76 1020.3
20260901203030 62 205 5.0 8.0 0.00 0.00 0.00 76 1020.4
20260901202030 62 198 5.0 7.0 0.00 0.00 0.00 76 1020.4
20260901201030 63 199 5.0 7.0 0.00 0.00 0.00 75 1020.4
20260901200030 63 209 5.0 7.0 0.00 0.00 0.00 75 1020.3
20260901195030 64 193 4.0 6.0 0.00 0.00 0.00 73 1020.1
20260901194030 64 225 7.0 10.0 0.00 0.00 0.00 73 1020.0
20260901193030 64 238 9.0 12.0 0.00 0.00 0.00 73 1019.9
20260901192030 64 241 9.0 12.0 0.00 0.00 0.00 71 1019.8
20260901191029 64 243 10.0 12.0 0.00 0.00 0.00 72 1019.9
20260901190030 64 238 10.0 13.0 0.00 0.00 0.00 72 1019.9
20260901185030 65 248 10.0 13.0 0.00 0.00 0.00 73 1019.9
20260901184030 65 253 12.0 15.0 0.00 0.00 0.00 71 1019.8
20260901183029 65 260 11.0 14.0 0.00 0.00 0.00 71 1019.7
20260901182030 65 252 11.0 15.0 0.00 0.00 0.00 69 1019.8
20260901181030 65 253 12.0 15.0 0.00 0.00 0.00 69 1019.9
20260901180030 65 248 13.0 17.0 0.00 0.00 0.00 69 1020.0
20260901175030 66 267 13.0 15.0 0.00 0.00 0.00 71 1020.0
20260901174030 66 265 11.0 14.0 0.00 0.00 0.00 70 1020.0
20260901173030 66 260 11.0 15.0 0.00 0.00 0.00 70 1020.0
20260901172030 66 259 12.0 15.0 0.00 0.00 0.00 68 1020.0
20260901171030 66 261 14.0 17.0 0.00 0.00 0.00 68 1020.1
20260901170030 66 262 12.0 15.0 0.00 0.00 0.00 69 1020.1
20260901165030 66 261 13.0 16.0 0.00 0.00 0.00 69 1020.1
20260901164029 66 248 13.0 15.0 0.00 0.00 0.00 68 1020.1
20260901163030 66 243 12.0 15.0 0.00 0.00 0.00 67 1020.0
20260901162030 66 248 12.0 17.0 0.00 0.00 0.00 71 1019.9